Date String (YYYY-MM-DD hh:mm:ss) UTC,Instrument flags,absolute air pressure of the measurement (hPa),sample flow rate (lpm),inlet stack bypass flow (lpm),air temperature of the measurement (°C),ambient temperature measured by the external sensor (°C),aerosol sample conditioner tube jacket temperature (°C),OPC LED temperature (°C),internal box temperature (°C),relative humidity of the measurement (%),span deviation,mass concentration of particles derived from Lorenz-Mie calculation of OPC scattering (μg/m³),mass concentration of particles derived from Lorenz-Mie calculation of OPC scattering (μg/m³),mass concentration of particles derived from Lorenz-Mie calculation of OPC scattering (μg/m³)
DateTimeUTC,F1_M11,P_M11,Q1_M11,Q2_M11,T1_M11,T2_M11,T3_M11,T4_M11,T5_M11,U1_M11,ZSPAN_M11,X0_M11,X2_M11,X1_M11
2024-05-10 23:00:00,SystemResetWarning,0833.5,5.01,000.00,024.7,021.9,000.0,033.4,025.4,020.8,0000.0,0012.16,0005.52,0005.22
2024-05-10 23:01:00,SystemResetWarning,0833.5,5.01,000.00,024.5,021.9,000.0,033.3,025.3,020.9,0000.0,0011.98,0005.61,0005.28
2024-05-10 23:02:00,SystemResetWarning,0833.5,4.99,000.00,024.4,022.3,000.0,033.2,025.6,021.1,0000.0,0011.90,0005.69,0005.33
2024-05-10 23:03:00,SystemResetWarning,0833.5,5.00,000.00,024.4,022.6,000.0,033.1,025.8,021.4,0000.0,0011.94,0005.71,0005.35
2024-05-10 23:04:00,SystemResetWarning,0833.5,5.00,000.00,024.5,023.0,000.0,033.0,026.1,021.0,0000.0,0010.76,0005.71,0005.33
2024-05-10 23:05:00,SystemResetWarning,0833.6,5.01,000.00,024.5,023.3,000.0,033.0,026.2,021.2,0000.0,0010.62,0005.72,0005.33
2024-05-10 23:06:00,SystemResetWarning,0833.6,5.00,000.00,024.6,023.5,000.0,033.0,026.3,021.1,0000.0,0010.17,0005.66,0005.27
2024-05-10 23:07:00,SystemResetWarning,0833.6,5.00,000.00,024.6,023.7,000.0,033.0,026.4,021.0,0000.0,0010.47,0005.58,0005.20
2024-05-10 23:08:00,SystemResetWarning,0833.6,5.00,000.00,024.7,023.9,000.0,033.0,026.5,021.3,0000.0,0012.02,0005.55,0005.12
2024-05-10 23:09:00,SystemResetWarning,0833.6,5.00,000.00,024.7,024.0,000.0,033.0,026.6,020.6,0000.0,0012.17,0005.44,0005.03
2024-05-10 23:10:00,SystemResetWarning,0833.6,5.00,000.00,024.8,024.2,000.0,033.0,026.7,020.4,0000.0,0011.70,0005.36,0004.98
2024-05-10 23:11:00,SystemResetWarning,0833.6,4.99,000.00,024.8,024.3,000.0,033.0,026.7,020.7,0000.0,0011.15,0005.27,0004.91
2024-05-10 23:12:00,SystemResetWarning,0833.6,4.99,000.00,024.9,024.4,000.0,033.1,026.8,020.8,0000.0,0010.98,0005.12,0004.78
2024-05-10 23:13:00,SystemResetWarning,0833.6,4.99,000.00,024.9,024.5,000.0,033.1,026.8,020.6,0000.0,0010.70,0004.99,0004.66
2024-05-10 23:14:00,SystemResetWarning,0833.6,5.00,000.00,025.0,024.5,000.0,033.1,026.9,020.6,0000.0,0010.47,0004.87,0004.52
2024-05-10 23:15:00,SystemResetWarning,0833.6,5.00,000.00,025.0,024.6,000.0,033.2,026.9,020.3,0000.0,0010.37,0004.78,0004.45
2024-05-10 23:16:00,SystemResetWarning,0833.7,5.01,000.00,025.0,024.6,000.0,033.2,027.0,020.4,0000.0,0010.39,0004.68,0004.37
2024-05-10 23:17:00,SystemResetWarning,0833.7,5.01,000.00,025.1,024.7,000.0,033.2,027.0,020.0,0000.0,0011.13,0004.60,0004.29
2024-05-10 23:18:00,SystemResetWarning,0833.7,4.99,000.00,025.1,024.7,000.0,033.3,027.0,019.9,0000.0,0010.64,0004.59,0004.26
2024-05-10 23:19:00,SystemResetWarning,0833.6,4.99,000.00,025.2,024.8,000.0,033.3,027.1,020.2,0000.0,0009.56,0004.54,0004.23
2024-05-10 23:20:00,SystemResetWarning,0833.6,5.00,000.00,025.2,024.8,000.0,033.3,027.1,019.8,0000.0,0008.70,0004.49,0004.20
2024-05-10 23:21:00,SystemResetWarning,0833.7,5.01,000.00,025.3,024.9,000.0,033.3,027.2,019.7,0000.0,0008.89,0004.45,0004.13
2024-05-10 23:22:00,SystemResetWarning,0833.6,5.01,000.00,025.3,024.9,000.0,033.4,027.2,019.8,0000.0,0009.30,0004.37,0004.04
2024-05-10 23:23:00,SystemResetWarning,0833.6,4.99,000.00,025.3,024.6,000.0,033.4,027.0,019.8,0000.0,0009.26,0004.30,0003.98
2024-05-10 23:24:00,SystemResetWarning,0833.5,4.99,000.00,025.0,022.5,000.0,033.5,025.9,019.9,0000.0,0009.51,0004.25,0003.92
2024-05-10 23:25:00,SystemResetWarning,0833.5,5.02,000.00,024.6,021.7,000.0,033.5,025.4,020.7,0000.0,0009.51,0004.18,0003.87
2024-05-10 23:26:00,SystemResetWarning,0833.5,4.99,000.00,024.5,022.0,000.0,033.3,025.5,020.2,0000.0,0009.93,0004.13,0003.81
2024-05-10 23:27:00,SystemResetWarning,0833.5,5.00,000.00,024.5,022.4,000.0,033.2,025.7,020.1,0000.0,0009.77,0004.11,0003.77
2024-05-10 23:28:00,SystemResetWarning,0833.5,5.00,000.00,024.5,022.8,000.0,033.1,026.0,019.9,0000.0,0009.10,0004.12,0003.75
2024-05-10 23:29:00,SystemResetWarning,0833.4,5.00,000.00,024.5,023.1,000.0,033.1,026.1,019.8,0000.0,0009.18,0004.12,0003.74
2024-05-10 23:30:00,SystemResetWarning,0833.4,4.99,000.00,024.6,023.4,000.0,033.1,026.3,019.7,0000.0,0009.58,0004.09,0003.72
2024-05-10 23:31:00,SystemResetWarning,0833.4,5.00,000.00,024.6,023.6,000.0,033.1,026.4,019.4,0000.0,0009.72,0004.08,0003.70
2024-05-10 23:32:00,SystemResetWarning,0833.4,5.01,000.00,024.6,023.8,000.0,033.1,026.5,019.6,0000.0,0009.90,0004.08,0003.72
2024-05-10 23:33:00,SystemResetWarning,0833.4,5.01,000.00,024.7,024.0,000.0,033.0,026.5,019.7,0000.0,0009.78,0004.10,0003.73
2024-05-10 23:34:00,SystemResetWarning,0833.4,5.00,000.00,024.7,024.1,000.0,033.0,026.6,020.0,0000.0,0009.50,0004.13,0003.76
2024-05-10 23:35:00,SystemResetWarning,0833.4,4.99,000.00,024.8,024.2,000.0,033.1,026.7,020.2,0000.0,0009.99,0004.18,0003.79
2024-05-10 23:36:00,SystemResetWarning,0833.4,5.01,000.00,024.8,024.3,000.0,033.1,026.7,020.3,0000.0,0009.68,0004.23,0003.83
2024-05-10 23:37:00,SystemResetWarning,0833.5,5.01,000.00,024.9,024.4,000.0,033.1,026.8,020.2,0000.0,0009.36,0004.32,0003.92
2024-05-10 23:38:00,SystemResetWarning,0833.4,5.00,000.00,024.9,024.5,000.0,033.1,026.9,020.4,0000.0,0010.41,0004.41,0003.99
2024-05-10 23:39:00,SystemResetWarning,0833.4,4.99,000.00,025.0,024.5,000.0,033.2,026.9,020.4,0000.0,0011.61,0004.48,0004.05
2024-05-10 23:40:00,SystemResetWarning,0833.4,4.99,000.00,025.0,024.6,000.0,033.2,027.0,020.5,0000.0,0011.77,0004.49,0004.10
2024-05-10 23:41:00,SystemResetWarning,0833.4,5.00,000.00,025.1,024.7,000.0,033.2,027.0,020.5,0000.0,0011.82,0004.52,0004.14
2024-05-10 23:42:00,SystemResetWarning,0833.4,5.00,000.00,025.1,024.7,000.0,033.2,027.1,020.3,0000.0,0012.04,0004.57,0004.16
2024-05-10 23:43:00,SystemResetWarning,0833.4,5.00,000.00,025.2,024.8,000.0,033.3,027.1,020.4,0000.0,0011.85,0004.60,0004.17
2024-05-10 23:44:00,SystemResetWarning,0833.5,5.00,000.00,025.2,024.8,000.0,033.3,027.1,020.5,0000.0,0011.69,0004.60,0004.16
2024-05-10 23:45:00,SystemResetWarning,0833.4,5.00,000.00,025.3,024.9,000.0,033.3,027.2,020.6,0000.0,0011.66,0004.58,0004.16
2024-05-10 23:46:00,SystemResetWarning,0833.5,5.00,000.00,025.3,024.9,000.0,033.4,027.2,020.6,0000.0,0011.86,0004.58,0004.14
2024-05-10 23:47:00,SystemResetWarning,0833.4,5.00,000.00,025.3,025.0,000.0,033.4,027.2,020.6,0000.0,0012.09,0004.56,0004.12
2024-05-10 23:48:00,SystemResetWarning,0833.4,5.00,000.00,025.4,025.0,000.0,033.4,027.3,020.2,0000.0,0011.97,0004.50,0004.06
2024-05-10 23:49:00,SystemResetWarning,0833.4,4.99,000.00,025.4,025.0,000.0,033.5,027.3,020.5,0000.0,0010.63,0004.41,0003.99
2024-05-10 23:50:00,SystemResetWarning,0833.4,5.01,000.00,025.4,025.0,000.0,033.5,027.3,020.2,0000.0,0009.59,0004.35,0003.93
2024-05-10 23:51:00,SystemResetWarning,0833.4,5.01,000.00,025.5,025.1,000.0,033.6,027.4,020.5,0000.0,0009.17,0004.32,0003.88
2024-05-10 23:52:00,SystemResetWarning,0833.4,4.99,000.00,025.4,024.4,000.0,033.6,026.9,020.1,0000.0,0008.80,0004.26,0003.82
2024-05-10 23:53:00,SystemResetWarning,0833.4,4.99,000.00,025.0,022.1,000.0,033.7,025.7,020.6,0000.0,0008.34,0004.22,0003.79
2024-05-10 23:54:00,SystemResetWarning,0833.3,5.02,000.00,024.7,021.7,000.0,033.6,025.4,021.2,0000.0,0008.26,0004.16,0003.76
2024-05-10 23:55:00,SystemResetWarning,0833.4,4.99,000.00,024.6,022.1,000.0,033.5,025.5,021.3,0000.0,0008.26,0004.14,0003.74
2024-05-10 23:56:00,SystemResetWarning,0833.4,5.00,000.00,024.6,022.4,000.0,033.3,025.8,021.3,0000.0,0008.31,0004.14,0003.73
2024-05-10 23:57:00,SystemResetWarning,0833.4,5.00,000.00,024.6,022.8,000.0,033.2,026.1,021.3,0000.0,0007.83,0004.09,0003.72
2024-05-10 23:58:00,SystemResetWarning,0833.4,5.01,000.00,024.6,023.1,000.0,033.2,026.2,021.2,0000.0,0007.36,0004.07,0003.71
2024-05-10 23:59:00,SystemResetWarning,0833.4,5.01,000.00,024.7,023.4,000.0,033.2,026.3,021.0,0000.0,0007.30,0004.05,0003.69
